Find Starlink 11526

NORAD ID: 63007 Int'l Des: 2025-032 Owner: SPXS Country: US Constellation: starlink operational
又名: STARLINK-11526 [DTC] celestrak
LEOCIRCULAR

当前视图

正在加载3D地球...

About Starlink 11526

Starlink 11526 (NORAD 63007) is a starlink constellation satellite (v2 mini d2c) launched Feb 15, 2025 by SPXS of US. It operates in LEO, CIRCULAR orbit with a mass of 960.00 kg.

即将过境

Passes for default location (London). Set your location on the main map for personalized predictions.

高度历史

Loading altitude history...

两行轨道根数

1 63007U 25032C 26236.13573102 .00199151 00000-0 15184-2 0 9996
2 63007 43.0004 265.5922 0003970 289.1772 70.8666 15.70837749 88555
Epoch: Aug 24, 2026 • Age: 10 hours

当前状态

高度 357.8 km
远地点 / 近地点 N/A
速度 7.70 km/s
星下点 -8.61°S, 78.89°W
发射日期 Feb 15, 2025
运行时间 1.5 years
类型 internet

技术详情

分类 Payload
质量 960.00 kg
干质量 910.00 kg
总质量 960.00 kg
长度 0.30 m
直径 4.10 m
跨度 29.00 m
形状 Box + pan
制造商 SPXS
平台类型 Starlink V2MD
阶段状态 In Orbit
所有者/国家 SPXS/US

Most Searched